When you browse on this site, cookies collect data to enhance your experience and personalize the content and advertising you see.
Visit our Privacy Policy to learn more. By continuing to use the site, you agree to this use of cookies and data.
  • In Sweden
  • List of Countries
  • For 7 days
  • Water Temperature
  • Satellite Maps
  • Weather Map
  • Weather Widgets
  • user-avatar
    Login

    Hourly Weather Goscinna

    Today, 16 July, Tuesday

    Time Temperature Precipitation Wind Pressure Humidity
    00:00 +14°C° 0 mm 2 mps 742 mmHg 71%
    01:00 +14°C° 0 mm 2 mps 742 mmHg 74%
    02:00 +13°C° 0 mm 2 mps 741 mmHg 81%
    03:00 +13°C° 0 mm 2 mps 741 mmHg 88%
    04:00 +12°C° 0 mm 3 mps 741 mmHg 95%
    05:00 +13°C° 0 mm 3 mps 741 mmHg 87%
    06:00 +14°C° 0 mm 4 mps 741 mmHg 80%
    07:00 +15°C° 0 mm 5 mps 741 mmHg 70%
    08:00 +15°C° 0 mm 5 mps 741 mmHg 69%
    09:00 +15°C° 0 mm 5 mps 741 mmHg 69%
    10:00 +15°C° 0 mm 5 mps 741 mmHg 68%
    11:00 +15°C° 0 mm 5 mps 741 mmHg 67%
    12:00 +15°C° 0 mm 5 mps 740 mmHg 66%
    13:00 +15°C° 0 mm 5 mps 741 mmHg 66%
    14:00 +16°C° 0 mm 5 mps 741 mmHg 67%
    15:00 +16°C° 0 mm 6 mps 741 mmHg 68%
    16:00 +16°C° 0 mm 6 mps 741 mmHg 69%
    17:00 +16°C° 0 mm 5 mps 740 mmHg 71%
    18:00 +17°C° 0 mm 4 mps 740 mmHg 74%
    19:00 +17°C° 0 mm 4 mps 740 mmHg 77%
    20:00 +16°C° 0 mm 3 mps 740 mmHg 79%
    21:00 +14°C° 0 mm 3 mps 741 mmHg 82%
    22:00 +13°C° 0 mm 3 mps 741 mmHg 85%
    23:00 +13°C° 0.1 mm 3 mps 741 mmHg 86%

    Tomorrow, 17 July, Wednesday

    Time Temperature Precipitation Wind Pressure Humidity
    00:00 +13°C° 0.1 mm 3 mps 741 mmHg 88%
    01:00 +13°C° 0.1 mm 3 mps 741 mmHg 90%
    02:00 +13°C° 0.1 mm 4 mps 740 mmHg 89%
    03:00 +13°C° 0.1 mm 4 mps 740 mmHg 88%
    04:00 +13°C° 0.1 mm 4 mps 740 mmHg 87%
    05:00 +14°C° 0 mm 5 mps 740 mmHg 84%
    06:00 +14°C° 0 mm 5 mps 740 mmHg 82%
    07:00 +15°C° 0 mm 6 mps 740 mmHg 80%
    08:00 +16°C° 0.1 mm 6 mps 740 mmHg 74%
    09:00 +17°C° 0.1 mm 6 mps 740 mmHg 68%
    10:00 +19°C° 0.1 mm 6 mps 740 mmHg 62%
    11:00 +19°C° 0.1 mm 6 mps 740 mmHg 59%
    12:00 +20°C° 0.1 mm 6 mps 740 mmHg 57%
    13:00 +21°C° 0.1 mm 6 mps 740 mmHg 54%
    14:00 +21°C° 0 mm 6 mps 740 mmHg 53%
    15:00 +21°C° 0 mm 6 mps 740 mmHg 52%
    16:00 +21°C° 0 mm 5 mps 740 mmHg 51%
    17:00 +20°C° 0 mm 4 mps 740 mmHg 56%
    18:00 +19°C° 0 mm 3 mps 740 mmHg 62%
    19:00 +18°C° 0 mm 2 mps 740 mmHg 68%
    20:00 +17°C° 0 mm 2 mps 741 mmHg 72%
    21:00 +15°C° 0 mm 1 mps 741 mmHg 77%
    22:00 +14°C° 0 mm 1 mps 741 mmHg 81%
    23:00 +13°C° 0 mm 0 mps 741 mmHg 83%

    Day after tomorrow, 18 July, Thursday

    Time Temperature Precipitation Wind Pressure Humidity
    00:00 +12°C° 0 mm 0 mps 741 mmHg 85%
    01:00 +12°C° 0 mm 0 mps 741 mmHg 87%
    02:00 +12°C° 0 mm 0 mps 741 mmHg 88%
    03:00 +11°C° 0 mm 0 mps 741 mmHg 89%
    04:00 +11°C° 0 mm 0 mps 741 mmHg 90%
    05:00 +12°C° 0 mm 0 mps 741 mmHg 84%
    06:00 +14°C° 0 mm 0 mps 742 mmHg 79%
    07:00 +16°C° 0 mm 0 mps 742 mmHg 73%
    08:00 +19°C° 0 mm 1 mps 742 mmHg 67%
    09:00 +20°C° 0 mm 1 mps 742 mmHg 62%
    10:00 +22°C° 0 mm 1 mps 742 mmHg 56%
    11:00 +22°C° 0 mm 1 mps 742 mmHg 53%
    12:00 +23°C° 0 mm 2 mps 742 mmHg 51%
    13:00 +23°C° 0 mm 2 mps 742 mmHg 48%
    14:00 +23°C° 0 mm 2 mps 741 mmHg 47%
    15:00 +24°C° 0 mm 1 mps 741 mmHg 46%
    16:00 +24°C° 0 mm 1 mps 741 mmHg 45%
    17:00 +23°C° 0 mm 1 mps 741 mmHg 50%
    18:00 +22°C° 0 mm 1 mps 741 mmHg 54%
    19:00 +19°C° 0 mm 0 mps 741 mmHg 58%
    20:00 +20°C° 0 mm 1 mps 742 mmHg 61%
    21:00 +19°C° 0 mm 1 mps 742 mmHg 63%
    22:00 +16°C° 0 mm 1 mps 742 mmHg 66%
    23:00 +16°C° 0 mm 1 mps 742 mmHg 68%

    19 July, Friday

    Time Temperature Precipitation Wind Pressure Humidity
    00:00 +15°C° 0 mm 1 mps 742 mmHg 71%
    01:00 +15°C° 0 mm 2 mps 742 mmHg 74%
    02:00 +14°C° 0 mm 1 mps 742 mmHg 76%
    03:00 +14°C° 0 mm 1 mps 742 mmHg 79%
    04:00 +14°C° 0 mm 1 mps 742 mmHg 82%
    05:00 +16°C° 0 mm 1 mps 742 mmHg 76%
    06:00 +19°C° 0 mm 1 mps 742 mmHg 70%
    07:00 +21°C° 0 mm 1 mps 742 mmHg 64%
    08:00 +22°C° 0 mm 1 mps 742 mmHg 58%
    09:00 +24°C° 0 mm 1 mps 742 mmHg 53%
    10:00 +25°C° 0 mm 1 mps 742 mmHg 47%
    11:00 +26°C° 0 mm 1 mps 742 mmHg 47%
    12:00 +26°C° 0 mm 1 mps 742 mmHg 47%
    13:00 +26°C° 0 mm 1 mps 742 mmHg 46%
    14:00 +26°C° 0 mm 1 mps 742 mmHg 46%
    15:00 +26°C° 0 mm 1 mps 742 mmHg 47%
    16:00 +26°C° 0 mm 1 mps 742 mmHg 47%
    17:00 +25°C° 0 mm 1 mps 742 mmHg 51%
    18:00 +24°C° 0 mm 1 mps 742 mmHg 55%
    19:00 +23°C° 0 mm 1 mps 742 mmHg 60%
    20:00 +22°C° 0.2 mm 1 mps 742 mmHg 64%
    21:00 +21°C° 0.2 mm 1 mps 742 mmHg 67%
    22:00 +20°C° 0.2 mm 1 mps 742 mmHg 71%
    23:00 +19°C° 0.1 mm 1 mps 742 mmHg 74%

    20 July, Saturday

    Time Temperature Precipitation Wind Pressure Humidity
    00:00 +19°C° 0.1 mm 1 mps 742 mmHg 78%
    01:00 +18°C° 0.1 mm 1 mps 742 mmHg 81%
    02:00 +18°C° 0 mm 1 mps 742 mmHg 82%
    03:00 +18°C° 0 mm 1 mps 743 mmHg 84%
    04:00 +16°C° 0 mm 1 mps 743 mmHg 85%
    05:00 +19°C° 0 mm 1 mps 743 mmHg 80%
    06:00 +21°C° 0 mm 1 mps 743 mmHg 75%
    07:00 +22°C° 0 mm 1 mps 743 mmHg 69%
    08:00 +24°C° 0.3 mm 1 mps 743 mmHg 64%
    09:00 +25°C° 0.3 mm 1 mps 744 mmHg 58%
    10:00 +27°C° 0.3 mm 1 mps 744 mmHg 53%
    11:00 +27°C° 0.1 mm 1 mps 744 mmHg 50%
    12:00 +28°C° 0.1 mm 2 mps 744 mmHg 48%
    13:00 +29°C° 0.1 mm 2 mps 744 mmHg 46%
    14:00 +28°C° 0 mm 2 mps 744 mmHg 46%
    15:00 +28°C° 0 mm 1 mps 744 mmHg 46%
    16:00 +28°C° 0 mm 1 mps 744 mmHg 46%
    17:00 +27°C° 0 mm 1 mps 744 mmHg 50%
    18:00 +26°C° 0 mm 1 mps 744 mmHg 55%
    19:00 +25°C° 0 mm 1 mps 744 mmHg 59%
    20:00 +24°C° 0 mm 1 mps 744 mmHg 62%
    21:00 +23°C° 0 mm 1 mps 744 mmHg 64%
    22:00 +22°C° 0 mm 1 mps 745 mmHg 66%
    23:00 +22°C° 0 mm 1 mps 745 mmHg 67%

    21 July, Sunday

    Time Temperature Precipitation Wind Pressure Humidity
    00:00 +20°C° 0 mm 2 mps 745 mmHg 69%
    01:00 +20°C° 0 mm 2 mps 745 mmHg 70%
    02:00 +20°C° 0 mm 2 mps 745 mmHg 72%
    03:00 +19°C° 0 mm 2 mps 745 mmHg 74%
    04:00 +19°C° 0 mm 2 mps 744 mmHg 76%
    05:00 +20°C° 0 mm 2 mps 745 mmHg 73%
    06:00 +22°C° 0 mm 3 mps 745 mmHg 69%
    07:00 +24°C° 0 mm 3 mps 745 mmHg 66%
    08:00 +26°C° 0 mm 3 mps 745 mmHg 60%
    09:00 +28°C° 0 mm 3 mps 745 mmHg 55%
    10:00 +30°C° 0 mm 3 mps 745 mmHg 49%
    11:00 +29°C° 0 mm 3 mps 745 mmHg 50%
    12:00 +29°C° 0 mm 3 mps 745 mmHg 52%
    13:00 +29°C° 0 mm 3 mps 745 mmHg 53%
    14:00 +28°C° 1.2 mm 4 mps 745 mmHg 61%
    15:00 +26°C° 1.2 mm 5 mps 744 mmHg 68%
    16:00 +24°C° 1.2 mm 7 mps 744 mmHg 76%
    17:00 +23°C° 2.2 mm 6 mps 744 mmHg 81%
    18:00 +22°C° 2.2 mm 5 mps 744 mmHg 86%
    19:00 +20°C° 2.2 mm 4 mps 744 mmHg 91%
    20:00 +20°C° 1.5 mm 3 mps 744 mmHg 92%
    21:00 +19°C° 1.5 mm 3 mps 744 mmHg 94%
    22:00 +19°C° 1.5 mm 2 mps 745 mmHg 95%
    23:00 +19°C° 0 mm 2 mps 745 mmHg 96%
    Show more